Live-Position
3D-Globus wird geladen...
Über Starlink 5098
Group: 3 satellites
Beschreibung wird geladen...
Nächste Überflüge
Passes for default location (London). Set your location on the main map for personalized predictions.
Höhenverlauf
Loading altitude history...
No altitude history available
Zweizeiliger Elementsatz
1 54013U 22125BB 26104.92362634 -.00001012 00000-0 -45478-4 0 9991
2 54013 53.2184 41.4151 0001460 89.0336 271.0824 15.08834748195078
Epoch: 14. Apr. 2026 •
Age: 8 hours
Aktueller Status
Höhe 539.6 km
Geschwindigkeit 7.59 km/s
Subsatellitenpunkt 12.08°N,
112.91°E
Startdatum 5. Okt. 2022
Alter 3.5 years
Typ internet
Startgruppe
Falcon 9 •
Group 4-29 •
44 satellites
Starlink 4633
53964
Starlink 4578 53965
Starlink 4635 53966
Starlink 4634 53967
Starlink 4629 53968
Starlink 4468 53969
Starlink 4567 53970
Starlink 5156 53973
Starlink 5159 53974
Starlink 5137 53975
Starlink 5134 53976
Starlink 5094 53977
Starlink 5148 53978
Starlink 5123 53979
Starlink 5133 53980
Starlink 5149 53981
Starlink 5120 53982
Starlink 5142 53984
Starlink 5147 53985
Starlink 5119 53986
...and 23 more
Technische Details
Klassifizierung Payload
Masse 305.00 kg
Trockenmasse 290.00 kg
Gesamtmasse 305.00 kg
Länge 0.20 m
Durchmesser 2.80 m
Spannweite 9.00 m
Form Box + pan
Hersteller SPXS
Bus-Typ Starlink
Phasenstatus In Orbit
Besitzer/Staat SPXS/US
Most Searched
Loading...